Weather History for Albany, GA

Change the Weather History Date:

Monday, January 14, 2013

  Actual Average Record
Temperature  
Mean Temperature 69 °F 49 °F  
Max Temperature 79 °F 61 °F 80 °F (1960)
Min Temperature 59 °F 38 °F 10 °F (1981)
Degree Days  
Heating Degree Days 0 16  
Month to date heating degree days 224  
Since 1 July heating degree days 937  
Cooling Degree Days 4 0  
Month to date cooling degree days 0  
Year to date cooling degree days 0  
Growing Degree Days 19 (Base 50)    
Moisture  
Dew Point 62 °F    
Average Humidity 85    
Maximum Humidity 100    
Minimum Humidity 56    
Precipitation  
Precipitation 0.00 in 0.15 in 0.33 in (2014)
Month to date precipitation 0.14 1.83  
Year to date precipitation 0.14 1.83  
Sea Level Pressure  
Sea Level Pressure 30.13 in    
Wind  
Wind Speed 7 mph (South)    
Max Wind Speed 13 mph    
Max Gust Speed 20 mph    
Visibility 7 miles    
Events Fog    
T = Trace of Precipitation, MM = Missing Value Source: NWS Daily Summary

Daily Weather History Graph

Daily Weather History Graph

Search for Another Location

Airport:

Trip Planner

Search our weather history database for the weather conditions in past years. The results will help you decide how hot, cold, wet, or windy it might be!

Date:

Astronomy

Jan. 14, 2013 Rise Set
Actual Time 7:36 AM EST 5:55 PM EST
Civil Twilight 7:10 AM EST 6:21 PM EST
Nautical Twilight 6:40 AM EST 6:51 PM EST
Astronomical Twilight 6:11 AM EST 7:20 PM EST
Moon 9:24 AM EST (1/14) 9:23 PM EST (1/14)
Length of Visible Light 11h 11m
Length of Day
10h 18m
Waxing Crescent, 11% of the Moon is Illuminated
Jan 14
Waxing Crescent
Jan 18
First Quarter
Jan 26
Full
Feb 3
Last Quarter
Feb 10
New

Hourly Weather History & Observations

Time (EST) Temp. Dew Point Humidity Pressure Visibility Wind Dir Wind Speed Gust Speed Precip Events Conditions
1:53 AM 66.0 °F 64.0 °F 93% 30.12 in 9.0 mi SSW 9.2 mph - N/A   Overcast
2:38 AM 66.2 °F 64.4 °F 94% 30.10 in 9.0 mi South 10.4 mph - N/A   Overcast
2:53 AM 66.0 °F 64.0 °F 93% 30.10 in 9.0 mi South 11.5 mph - N/A   Overcast
3:53 AM 64.0 °F 63.0 °F 96% 30.10 in 8.0 mi SW 3.5 mph - N/A   Partly Cloudy
4:10 AM 64.4 °F 62.6 °F 94% 30.11 in 8.0 mi Calm Calm - N/A   Mostly Cloudy
4:53 AM 62.1 °F 61.0 °F 96% 30.10 in 2.0 mi South 3.5 mph - N/A   Mostly Cloudy
5:00 AM 62.6 °F 62.6 °F 100% 30.10 in 1.0 mi Calm Calm - N/A   Mist
5:07 AM 62.6 °F 62.6 °F 100% 30.10 in 0.8 mi Calm Calm - N/A   Mist
5:30 AM 62.6 °F 60.8 °F 94% 30.10 in 0.2 mi SSE 4.6 mph - N/A Fog Fog
5:53 AM 61.0 °F 60.1 °F 97% 30.11 in 0.5 mi South 3.5 mph - N/A Fog Fog
6:01 AM 60.8 °F 60.8 °F 100% 30.12 in 2.0 mi Calm Calm - N/A   Overcast
6:09 AM 62.6 °F 60.8 °F 94% 30.12 in 4.0 mi SSE 3.5 mph - N/A   Overcast
6:35 AM 64.4 °F 62.6 °F 94% 30.13 in 2.5 mi South 4.6 mph - N/A   Overcast
6:45 AM 64.4 °F 62.6 °F 94% 30.13 in 1.2 mi South 6.9 mph - N/A   Overcast
6:53 AM 64.0 °F 63.0 °F 96% 30.13 in 1.5 mi South 6.9 mph - N/A   Overcast
7:25 AM 64.4 °F 62.6 °F 94% 30.14 in 2.5 mi South 6.9 mph - N/A   Overcast
7:53 AM 64.0 °F 64.0 °F 100% 30.15 in 2.0 mi South 5.8 mph - N/A   Overcast
8:53 AM 64.9 °F 64.9 °F 100% 30.17 in 2.0 mi South 6.9 mph - N/A   Overcast
9:05 AM 64.4 °F 64.4 °F 100% 30.17 in 7.0 mi SSW 8.1 mph - N/A   Overcast
9:53 AM 68.0 °F 63.0 °F 84% 30.18 in 10.0 mi South 11.5 mph - N/A   Mostly Cloudy
9:56 AM 68.0 °F 62.6 °F 83% 30.18 in 10.0 mi SSW 9.2 mph - N/A   Mostly Cloudy
10:03 AM 69.8 °F 64.4 °F 83% 30.19 in 10.0 mi SSW 10.4 mph - N/A   Mostly Cloudy
10:53 AM 70.0 °F 63.0 °F 78% 30.18 in 10.0 mi SSW 8.1 mph 19.6 mph N/A   Overcast
11:01 AM 69.8 °F 62.6 °F 78% 30.18 in 10.0 mi SSW 11.5 mph - N/A   Overcast
11:53 AM 75.0 °F 63.0 °F 66% 30.15 in 10.0 mi SSW 11.5 mph - N/A   Mostly Cloudy
12:53 PM 75.9 °F 62.1 °F 62% 30.12 in 10.0 mi South 12.7 mph - N/A   Mostly Cloudy
1:53 PM 77.0 °F 62.1 °F 60% 30.11 in 10.0 mi SSW 12.7 mph - N/A   Overcast
2:53 PM 78.1 °F 62.1 °F 58% 30.11 in 10.0 mi SW 9.2 mph - N/A   Mostly Cloudy
3:53 PM 78.1 °F 61.0 °F 56% 30.11 in 10.0 mi SSW 9.2 mph - N/A   Partly Cloudy
5:53 PM 73.9 °F 60.1 °F 62% 30.13 in 10.0 mi South 8.1 mph - N/A   Clear
6:53 PM 70.0 °F 59.0 °F 68% 30.15 in 10.0 mi South 6.9 mph - N/A   Clear
7:53 PM 69.1 °F 57.0 °F 65% 30.15 in 10.0 mi South 8.1 mph - N/A   Partly Cloudy
8:53 PM 68.0 °F 57.0 °F 68% 30.15 in 10.0 mi South 11.5 mph - N/A   Clear
9:53 PM 64.9 °F 57.9 °F 78% 30.15 in 9.0 mi South 5.8 mph - N/A   Clear
10:53 PM 63.0 °F 57.9 °F 84% 30.14 in 8.0 mi South 5.8 mph - N/A   Clear
11:53 PM 62.1 °F 57.9 °F 86% 30.14 in 8.0 mi South 3.5 mph - N/A   Clear